ZL2ARL Weather Reports


Display with metric or nautical units.
time (UTC)temp
F
wind
direction
speed
MPH
gust
MPH
rain 1hr
in
rain 24hr
in
rain mn
in
humidity
%
barometer
mb
20260506062040 57 322 14.0 26.0 0.00 0.03 0.03 91 1025.8
20260506061036 57 328 14.0 27.0 0.00 0.03 0.03 91 1025.5
20260506051026 57 320 18.0 30.0 0.00 0.03 0.03 90 1025.8
20260506045017 57 333 16.0 27.0 0.00 0.03 0.03 89 1026.0
20260506044031 57 327 17.0 30.0 0.00 0.03 0.03 89 1026.0
20260506043107 57 342 16.0 25.0 0.00 0.03 0.03 89 1026.0
20260506042022 57 345 18.0 29.0 0.00 0.03 0.03 89 1025.9
20260506041017 58 328 14.0 25.0 0.00 0.03 0.03 89 1026.1
20260506040032 58 329 14.0 21.0 0.00 0.03 0.03 88 1026.1
20260506035047 58 336 13.0 23.0 0.00 0.03 0.03 89 1026.1
20260506034022 58 340 13.0 23.0 0.00 0.03 0.03 89 1026.0
20260506033017 58 322 15.0 24.0 0.00 0.03 0.03 89 1026.0
20260506032032 58 331 15.0 26.0 0.00 0.03 0.03 89 1026.1
20260506031027 57 341 15.0 23.0 0.00 0.03 0.03 89 1026.1
20260506030022 57 334 15.0 23.0 0.00 0.03 0.03 89 1026.0
20260506025017 57 332 15.0 26.0 0.00 0.03 0.03 89 1026.0
20260506024032 57 349 15.0 24.0 0.00 0.03 0.03 89 1026.0
20260506023027 57 341 16.0 22.0 0.00 0.03 0.03 89 1025.9
20260506022022 57 331 15.0 25.0 0.00 0.03 0.03 89 1025.7
20260506021017 57 333 12.0 22.0 0.00 0.03 0.03 89 1025.8
20260506020032 57 332 14.0 21.0 0.00 0.03 0.03 89 1025.9
20260506015027 57 334 15.0 22.0 0.00 0.03 0.03 88 1026.0
20260506014042 57 335 13.0 21.0 0.00 0.03 0.03 89 1026.0
20260506013017 56 336 14.0 24.0 0.00 0.03 0.03 89 1026.1
20260506012032 56 336 16.0 26.0 0.01 0.03 0.03 91 1026.2
20260506011027 56 345 11.0 16.0 0.01 0.03 0.03 91 1026.3
20260506010022 56 343 11.0 18.0 0.01 0.03 0.03 91 1026.5
20260506005017 56 344 13.0 24.0 0.01 0.03 0.03 91 1026.4
20260506004032 56 333 13.0 22.0 0.01 0.02 0.02 91 1026.6
20260506003027 56 332 13.0 21.0 0.02 0.02 0.02 91 1026.7
20260506002022 56 332 14.0 25.0 0.01 0.02 0.02 90 1026.8
20260506001017 56 346 19.0 30.0 0.02 0.02 0.02 91 1026.9
20260506000052 56 337 16.0 25.0 0.02 0.02 0.02 91 1026.9
20260505235028 56 333 12.0 19.0 0.01 0.01 0.01 91 1027.0
20260505234043 56 336 15.0 27.0 0.01 0.01 0.01 91 1027.1
20260505233018 56 332 14.0 25.0 0.00 0.00 0.00 91 1027.2
20260505232033 56 333 12.0 21.0 0.00 0.00 0.00 89 1027.1
20260505231028 56 331 15.0 25.0 0.00 0.00 0.00 89 1027.1
20260505230023 56 335 18.0 29.0 0.00 0.00 0.00 90 1027.2
20260505225018 56 326 19.0 28.0 0.00 0.00 0.00 90 1027.3
20260505224034 56 325 15.0 28.0 0.00 0.00 0.00 90 1027.4
20260505223028 56 342 16.0 28.0 0.00 0.00 0.00 89 1027.3
20260505222023 56 335 15.0 24.0 0.00 0.00 0.00 89 1027.4
20260505221018 56 331 12.0 22.0 0.00 0.00 0.00 90 1027.3
20260505220034 55 333 13.0 23.0 0.00 0.00 0.00 90 1027.5
20260505215029 55 332 13.0 22.0 0.00 0.00 0.00 90 1027.5
20260505214024 55 343 13.0 18.0 0.00 0.00 0.00 90 1027.6
20260505213019 55 354 14.0 24.0 0.00 0.00 0.00 89 1027.4
20260505212034 55 350 13.0 20.0 0.00 0.00 0.00 89 1027.5
20260505211030 55 349 13.0 23.0 0.00 0.00 0.00 88 1027.6
20260505210025 55 319 14.0 26.0 0.00 0.00 0.00 88 1027.8
20260505205040 55 341 10.0 20.0 0.00 0.00 0.00 87 1027.7
20260505204035 55 331 12.0 21.0 0.00 0.00 0.00 87 1027.7
20260505203030 55 339 15.0 27.0 0.00 0.00 0.00 87 1027.8
20260505202025 55 334 14.0 23.0 0.00 0.00 0.00 86 1027.8
20260505201020 55 332 15.0 22.0 0.00 0.00 0.00 86 1027.9
20260505200035 55 333 13.0 20.0 0.00 0.00 0.00 86 1027.8
20260505195030 54 329 12.0 20.0 0.00 0.00 0.00 87 1027.7
20260505194045 54 342 10.0 19.0 0.00 0.00 0.00 87 1027.6
20260505193020 54 341 10.0 16.0 0.00 0.00 0.00 87 1027.7
20260505192056 54 333 11.0 22.0 0.00 0.00 0.00 87 1027.6
20260505191051 54 347 11.0 18.0 0.00 0.00 0.00 87 1027.5
20260505190026 54 353 12.0 19.0 0.00 0.00 0.00 87 1027.6
20260505185021 53 347 13.0 18.0 0.00 0.00 0.00 87 1027.6
20260505184015 53 352 12.0 17.0 0.00 0.00 0.00 87 1027.7
20260505183031 53 360 12.0 20.0 0.00 0.00 0.00 86 1027.7
20260505182026 53 354 15.0 21.0 0.00 0.00 0.00 87 1027.7
20260505181021 53 360 14.0 22.0 0.00 0.00 0.00 87 1027.6
20260505180036 53 349 13.0 21.0 0.00 0.00 0.00 87 1027.9
20260505175031 53 354 11.0 19.0 0.00 0.00 0.00 86 1027.9
20260505174027 53 344 12.0 26.0 0.00 0.00 0.00 86 1027.9
20260505173021 53 346 12.0 21.0 0.00 0.00 0.00 85 1028.0
20260505172016 53 348 14.0 23.0 0.00 0.00 0.00 85 1028.0
20260505171032 53 344 11.0 17.0 0.00 0.00 0.00 84 1028.0
20260505170026 53 350 13.0 28.0 0.00 0.00 0.00 84 1028.0
20260505165042 54 335 15.0 24.0 0.00 0.00 0.00 83 1028.1
20260505164017 54 329 12.0 19.0 0.00 0.00 0.00 83 1028.1
20260505163032 53 326 17.0 30.0 0.00 0.00 0.00 84 1028.2
20260505162027 53 329 14.0 26.0 0.00 0.00 0.00 83 1028.2
20260505161022 53 342 13.0 23.0 0.00 0.00 0.00 83 1028.4
20260505153022 54 329 17.0 27.0 0.00 0.00 0.00 80 1028.7
20260505152018 54 339 15.0 25.0 0.00 0.00 0.00 80 1028.8
20260505151033 54 338 14.0 25.0 0.00 0.00 0.00 80 1029.0
20260505124019 53 360 12.0 19.0 0.00 0.00 0.00 73 1030.2
20260505123054 53 5 14.0 22.0 0.00 0.00 0.00 73 1030.4
20260505122030 52 345 11.0 21.0 0.00 0.00 0.00 74 1030.3
20260505121025 52 354 10.0 20.0 0.00 0.00 0.00 74 1030.1
20260505120020 52 348 8.0 19.0 0.00 0.00 0.00 74 1030.3
20260505115034 52 6 12.0 21.0 0.00 0.00 0.00 75 1030.2
20260505114030 52 14 12.0 21.0 0.00 0.00 0.00 74 1030.3
20260505113025 52 10 12.0 21.0 0.00 0.00 0.00 74 1030.3
20260505112020 52 11 11.0 20.0 0.00 0.00 0.00 74 1030.2
20260505111035 52 11 12.0 22.0 0.00 0.00 0.00 75 1030.3
20260505102031 51 14 13.0 21.0 0.00 0.00 0.00 76 1030.6
20260505101026 51 22 12.0 19.0 0.00 0.00 0.00 77 1030.6
20260505100022 51 11 13.0 22.0 0.00 0.00 0.00 76 1030.8
20260505095016 51 15 12.0 19.0 0.00 0.00 0.00 75 1030.8
20260505094031 52 7 12.0 18.0 0.00 0.00 0.00 74 1030.7
20260505093026 52 6 11.0 20.0 0.00 0.00 0.00 75 1030.7
20260505092022 52 0 11.0 17.0 0.00 0.00 0.00 75 1030.9
20260505091017 52 352 12.0 18.0 0.00 0.00 0.00 75 1030.7
20260505090031 52 4 11.0 19.0 0.00 0.00 0.00 75 1030.9
20260505085027 51 9 13.0 22.0 0.00 0.00 0.00 76 1030.8
20260505084022 51 354 12.0 18.0 0.00 0.00 0.00 76 1030.8
20260505083017 51 343 12.0 22.0 0.00 0.00 0.00 77 1030.8
20260505082032 51 349 13.0 21.0 0.00 0.00 0.00 78 1030.8
20260505081027 51 350 12.0 22.0 0.00 0.00 0.00 78 1030.9
20260505080022 51 357 14.0 23.0 0.00 0.00 0.00 79 1030.9
20260505075017 51 6 16.0 23.0 0.00 0.00 0.00 79 1031.0
20260505074032 51 1 15.0 22.0 0.00 0.00 0.00 79 1030.9
20260505073047 51 358 14.0 23.0 0.00 0.00 0.00 80 1031.0
20260505072022 51 349 14.0 27.0 0.00 0.00 0.00 80 1031.0
20260505071017 51 348 13.0 22.0 0.00 0.00 0.00 80 1030.9
20260505070032 50 357 12.0 20.0 0.00 0.00 0.00 80 1031.0
20260505065028 50 353 14.0 21.0 0.00 0.00 0.00 80 1031.0
20260505064042 50 350 12.0 21.0 0.00 0.00 0.00 80 1030.8
20260505063018 51 358 15.0 22.0 0.00 0.00 0.00 80 1030.8